| time (UTC) | temp C | wind direction | speed KPH | gust KPH | rain 1hr cm | rain 24hr cm | rain mn cm | humidity % | barometer mb |
| 20260508032950 | 15 | 307 | 4.8 | 11.3 | 0.00 | 0.00 | 0.00 | 90 | 1015.0 |
| 20260508030831 | 16 | 319 | 4.8 | 11.3 | 0.00 | 0.00 | 0.00 | 89 | 1014.8 |
| 20260508025837 | 16 | 282 | 6.4 | 11.3 | 0.00 | 0.00 | 0.00 | 88 | 1014.8 |
| 20260508024816 | 16 | 253 | 6.4 | 14.5 | 0.00 | 0.00 | 0.00 | 87 | 1014.7 |
| 20260508023800 | 16 | 264 | 8.0 | 14.5 | 0.00 | 0.00 | 0.00 | 86 | 1014.5 |
| 20260508022727 | 17 | 290 | 8.0 | 12.9 | 0.00 | 0.00 | 0.00 | 85 | 1014.5 |
| 20260508021718 | 17 | 72 | 8.0 | 12.9 | 0.00 | 0.00 | 0.00 | 84 | 1014.4 |
| 20260508020740 | 17 | 246 | 9.7 | 14.5 | 0.00 | 0.00 | 0.00 | 84 | 1014.4 |
| 20260508015705 | 17 | 197 | 9.7 | 16.1 | 0.00 | 0.00 | 0.00 | 83 | 1014.3 |
| 20260508013600 | 18 | 294 | 9.7 | 14.5 | 0.00 | 0.00 | 0.00 | 82 | 1014.3 |
| 20260508012549 | 18 | 225 | 9.7 | 14.5 | 0.00 | 0.00 | 0.00 | 82 | 1014.2 |
| 20260508005329 | 18 | 283 | 9.7 | 14.5 | 0.00 | 0.00 | 0.00 | 80 | 1014.3 |
| 20260508004311 | 18 | 257 | 9.7 | 14.5 | 0.00 | 0.00 | 0.00 | 79 | 1014.3 |
| 20260508003304 | 18 | 253 | 9.7 | 16.1 | 0.00 | 0.00 | 0.00 | 80 | 1014.4 |
| 20260508002307 | 18 | 256 | 11.3 | 16.1 | 0.00 | 0.00 | 0.00 | 80 | 1014.3 |
| 20260508001303 | 18 | 231 | 9.7 | 14.5 | 0.00 | 0.00 | 0.00 | 81 | 1014.4 |
| 20260508000257 | 18 | 163 | 9.7 | 14.5 | 0.00 | 0.00 | 0.00 | 82 | 1014.3 |
| 20260507234145 | 18 | 306 | 9.7 | 16.1 | 0.00 | 0.00 | 0.00 | 80 | 1014.5 |
| 20260507233117 | 18 | 217 | 9.7 | 17.7 | 0.00 | 0.00 | 0.00 | 81 | 1014.5 |
| 20260507232130 | 18 | 166 | 11.3 | 17.7 | 0.00 | 0.00 | 0.00 | 82 | 1014.7 |
| 20260507231104 | 18 | 304 | 12.9 | 20.9 | 0.00 | 0.00 | 0.00 | 83 | 1014.6 |
| 20260507230101 | 18 | 281 | 11.3 | 20.9 | 0.00 | 0.00 | 0.00 | 81 | 1014.6 |
| 20260507225030 | 18 | 293 | 12.9 | 17.7 | 0.00 | 0.00 | 0.00 | 80 | 1014.6 |
| 20260507224005 | 19 | 233 | 11.3 | 17.7 | 0.00 | 0.00 | 0.00 | 80 | 1014.6 |
| 20260507223004 | 19 | 277 | 11.3 | 17.7 | 0.00 | 0.00 | 0.00 | 78 | 1014.7 |
| 20260507221950 | 20 | 222 | 11.3 | 17.7 | 0.00 | 0.00 | 0.00 | 78 | 1014.9 |
| 20260507221007 | 19 | 232 | 12.9 | 17.7 | 0.00 | 0.00 | 0.00 | 78 | 1014.9 |
| 20260507220011 | 19 | 220 | 12.9 | 17.7 | 0.00 | 0.00 | 0.00 | 77 | 1015.1 |
| 20260507214949 | 19 | 231 | 12.9 | 20.9 | 0.00 | 0.00 | 0.00 | 77 | 1015.4 |
| 20260507213957 | 19 | 184 | 12.9 | 20.9 | 0.00 | 0.00 | 0.00 | 78 | 1015.5 |
| 20260507212943 | 19 | 95 | 12.9 | 20.9 | 0.00 | 0.00 | 0.00 | 77 | 1015.4 |
| 20260507210842 | 19 | 253 | 12.9 | 19.3 | 0.00 | 0.00 | 0.00 | 77 | 1015.8 |
| 20260507205854 | 19 | 9 | 12.9 | 19.3 | 0.00 | 0.00 | 0.00 | 79 | 1015.9 |
| 20260507203748 | 19 | 291 | 12.9 | 17.7 | 0.00 | 0.00 | 0.00 | 77 | 1016.1 |
| 20260507202755 | 19 | 222 | 12.9 | 17.7 | 0.00 | 0.00 | 0.00 | 77 | 1016.2 |
| 20260507200634 | 19 | 315 | 12.9 | 17.7 | 0.00 | 0.00 | 0.00 | 78 | 1016.2 |
| 20260507195646 | 19 | 217 | 11.3 | 16.1 | 0.00 | 0.00 | 0.00 | 77 | 1016.4 |
| 20260507194612 | 19 | 288 | 11.3 | 16.1 | 0.00 | 0.00 | 0.00 | 77 | 1016.5 |
| 20260507193556 | 19 | 105 | 11.3 | 16.1 | 0.00 | 0.00 | 0.00 | 77 | 1016.6 |
| 20260507191417 | 19 | 70 | 9.7 | 16.1 | 0.00 | 0.00 | 0.00 | 77 | 1016.7 |
| 20260507190358 | 19 | 245 | 9.7 | 14.5 | 0.00 | 0.00 | 0.00 | 77 | 1016.8 |
| 20260507185326 | 20 | 281 | 8.0 | 14.5 | 0.00 | 0.00 | 0.00 | 75 | 1016.8 |
| 20260507184339 | 20 | 199 | 6.4 | 12.9 | 0.00 | 0.00 | 0.00 | 75 | 1016.9 |
| 20260507183334 | 20 | 31 | 6.4 | 12.9 | 0.00 | 0.00 | 0.00 | 75 | 1016.9 |
| 20260507182348 | 20 | 219 | 6.4 | 12.9 | 0.00 | 0.00 | 0.00 | 75 | 1016.8 |
| 20260507181342 | 20 | 120 | 6.4 | 12.9 | 0.00 | 0.00 | 0.00 | 76 | 1016.9 |
| 20260507180323 | 20 | 203 | 6.4 | 9.7 | 0.00 | 0.00 | 0.00 | 77 | 1016.9 |
| 20260507175324 | 19 | 241 | 6.4 | 14.5 | 0.00 | 0.00 | 0.00 | 77 | 1017.0 |
| 20260507174304 | 19 | 41 | 6.4 | 14.5 | 0.00 | 0.00 | 0.00 | 77 | 1016.9 |
| 20260507172221 | 19 | 233 | 6.4 | 11.3 | 0.00 | 0.00 | 0.00 | 77 | 1017.1 |
| 20260507171218 | 19 | 264 | 6.4 | 11.3 | 0.00 | 0.00 | 0.00 | 77 | 1017.1 |
| 20260507170153 | 19 | 246 | 4.8 | 11.3 | 0.00 | 0.00 | 0.00 | 77 | 1017.0 |
| 20260507165135 | 19 | 8 | 3.2 | 6.4 | 0.00 | 0.00 | 0.00 | 78 | 1017.0 |
| 20260507164101 | 18 | 255 | 3.2 | 6.4 | 0.00 | 0.00 | 0.00 | 78 | 1017.1 |
| 20260507161924 | 18 | 20 | 3.2 | 8.0 | 0.00 | 0.00 | 0.00 | 80 | 1017.1 |
| 20260507160946 | 18 | 262 | 3.2 | 8.0 | 0.00 | 0.00 | 0.00 | 81 | 1017.0 |
| 20260507155943 | 18 | 249 | 3.2 | 8.0 | 0.00 | 0.00 | 0.00 | 81 | 1017.1 |
| 20260507155002 | 17 | 66 | 4.8 | 6.4 | 0.00 | 0.00 | 0.00 | 83 | 1017.1 |
| 20260507153949 | 18 | 187 | 3.2 | 6.4 | 0.00 | 0.00 | 0.00 | 84 | 1017.1 |
| 20260507152950 | 17 | 245 | 1.6 | 6.4 | 0.00 | 0.00 | 0.00 | 85 | 1017.1 |
| 20260507151950 | 17 | 9 | 4.8 | 9.7 | 0.00 | 0.00 | 0.00 | 86 | 1017.2 |
| 20260507150923 | 16 | 288 | 4.8 | 9.7 | 0.00 | 0.00 | 0.00 | 87 | 1017.2 |
| 20260507145926 | 16 | 295 | 3.2 | 8.0 | 0.00 | 0.00 | 0.00 | 88 | 1017.1 |
| 20260507143811 | 16 | 173 | 1.6 | 8.0 | 0.00 | 0.00 | 0.00 | 90 | 1017.1 |
| 20260507141608 | 15 | 251 | 1.6 | 6.4 | 0.00 | 0.00 | 0.00 | 91 | 1016.9 |
| 20260507140600 | 15 | 274 | 3.2 | 6.4 | 0.00 | 0.00 | 0.00 | 91 | 1016.7 |
| 20260507135557 | 15 | 271 | 1.6 | 4.8 | 0.00 | 0.00 | 0.00 | 92 | 1016.7 |
| 20260507133411 | 15 | 290 | 1.6 | 4.8 | 0.00 | 0.00 | 0.00 | 91 | 1016.6 |
| 20260507132400 | 15 | 266 | 1.6 | 4.8 | 0.00 | 0.00 | 0.00 | 91 | 1016.4 |
| 20260507130310 | 15 | 272 | 1.6 | 4.8 | 0.00 | 0.00 | 0.00 | 91 | 1016.3 |
| 20260507124122 | 14 | 269 | 3.2 | 6.4 | 0.00 | 0.00 | 0.00 | 91 | 1016.2 |
| 20260507123126 | 14 | 226 | 1.6 | 4.8 | 0.00 | 0.00 | 0.00 | 91 | 1016.2 |
| 20260507122147 | 14 | 247 | 0.0 | 0.0 | 0.00 | 0.00 | 0.00 | 91 | 1016.2 |
| 20260507121126 | 14 | 287 | 0.0 | 4.8 | 0.00 | 0.00 | 0.00 | 91 | 1016.3 |
| 20260507120121 | 14 | 264 | 0.0 | 0.0 | 0.00 | 0.00 | 0.00 | 91 | 1016.2 |
| 20260507115132 | 14 | 264 | 0.0 | 0.0 | 0.00 | 0.00 | 0.00 | 91 | 1016.0 |
| 20260507114118 | 14 | 248 | 0.0 | 4.8 | 0.00 | 0.00 | 0.00 | 91 | 1016.1 |
| 20260507113112 | 14 | 255 | 0.0 | 1.6 | 0.00 | 0.00 | 0.00 | 90 | 1016.0 |
| 20260507112127 | 14 | 229 | 1.6 | 4.8 | 0.00 | 0.00 | 0.00 | 91 | 1016.1 |
| 20260507111134 | 14 | 184 | 0.0 | 3.2 | 0.00 | 0.00 | 0.00 | 91 | 1016.3 |
| 20260507110144 | 14 | 102 | 0.0 | 3.2 | 0.00 | 0.00 | 0.00 | 91 | 1016.2 |
| 20260507105118 | 14 | 155 | 0.0 | 3.2 | 0.00 | 0.00 | 0.00 | 90 | 1016.4 |
| 20260507104130 | 15 | 187 | 0.0 | 4.8 | 0.00 | 0.00 | 0.00 | 91 | 1016.5 |
| 20260507103058 | 15 | 199 | 0.0 | 4.8 | 0.00 | 0.00 | 0.00 | 91 | 1016.6 |
| 20260507100930 | 15 | 141 | 0.0 | 1.6 | 0.00 | 0.00 | 0.00 | 91 | 1016.7 |
| 20260507095857 | 15 | 247 | 0.0 | 0.0 | 0.00 | 0.00 | 0.00 | 90 | 1016.6 |
| 20260507094907 | 15 | 247 | 0.0 | 0.0 | 0.00 | 0.00 | 0.00 | 90 | 1016.7 |
| 20260507093932 | 15 | 246 | 0.0 | 0.0 | 0.00 | 0.00 | 0.00 | 90 | 1016.7 |
| 20260507092943 | 15 | 246 | 1.6 | 4.8 | 0.00 | 0.00 | 0.00 | 90 | 1016.9 |
| 20260507091947 | 15 | 247 | 3.2 | 6.4 | 0.00 | 0.00 | 0.00 | 90 | 1017.0 |
| 20260507090923 | 15 | 94 | 3.2 | 8.0 | 0.00 | 0.00 | 0.00 | 90 | 1017.1 |
| 20260507085942 | 15 | 211 | 4.8 | 8.0 | 0.00 | 0.00 | 0.00 | 90 | 1017.1 |
| 20260507084924 | 15 | 259 | 4.8 | 9.7 | 0.00 | 0.00 | 0.00 | 91 | 1017.1 |
| 20260507083921 | 15 | 260 | 1.6 | 9.7 | 0.00 | 0.00 | 0.00 | 91 | 1017.4 |
| 20260507082917 | 15 | 268 | 1.6 | 4.8 | 0.00 | 0.00 | 0.00 | 91 | 1017.5 |
| 20260507081859 | 15 | 247 | 0.0 | 4.8 | 0.00 | 0.00 | 0.00 | 91 | 1017.5 |
| 20260507080847 | 15 | 203 | 1.6 | 6.4 | 0.00 | 0.00 | 0.00 | 91 | 1017.5 |
| 20260507075859 | 15 | 237 | 1.6 | 6.4 | 0.00 | 0.00 | 0.00 | 91 | 1017.5 |
| 20260507074900 | 15 | 300 | 1.6 | 6.4 | 0.00 | 0.00 | 0.00 | 91 | 1017.6 |
| 20260507073859 | 15 | 269 | 0.0 | 0.0 | 0.00 | 0.00 | 0.00 | 91 | 1017.6 |
| 20260507072847 | 15 | 295 | 1.6 | 4.8 | 0.00 | 0.00 | 0.00 | 91 | 1017.6 |
| 20260507071824 | 15 | 241 | 1.6 | 4.8 | 0.00 | 0.00 | 0.00 | 91 | 1017.6 |
| 20260507070843 | 15 | 238 | 1.6 | 6.4 | 0.00 | 0.00 | 0.00 | 91 | 1017.6 |
| 20260507065825 | 15 | 281 | 1.6 | 6.4 | 0.00 | 0.00 | 0.00 | 91 | 1017.7 |
| 20260507064839 | 15 | 295 | 3.2 | 6.4 | 0.00 | 0.00 | 0.00 | 91 | 1017.8 |
| 20260507062735 | 15 | 240 | 3.2 | 6.4 | 0.00 | 0.00 | 0.00 | 91 | 1017.8 |
| 20260507061757 | 15 | 248 | 4.8 | 9.7 | 0.00 | 0.00 | 0.00 | 91 | 1017.8 |
| 20260507060801 | 15 | 250 | 6.4 | 9.7 | 0.00 | 0.00 | 0.00 | 90 | 1017.8 |
| 20260507055813 | 15 | 270 | 6.4 | 11.3 | 0.00 | 0.00 | 0.00 | 90 | 1017.8 |
| 20260507054804 | 15 | 274 | 8.0 | 12.9 | 0.00 | 0.00 | 0.00 | 90 | 1017.9 |
| 20260507050406 | 15 | 250 | 4.8 | 9.7 | 0.00 | 0.00 | 0.00 | 90 | 1017.7 |
| 20260507045418 | 15 | 254 | 6.4 | 12.9 | 0.00 | 0.00 | 0.00 | 90 | 1017.8 |
| 20260507043237 | 15 | 294 | 8.0 | 14.5 | 0.00 | 0.00 | 0.00 | 89 | 1017.7 |
| 20260507042225 | 15 | 247 | 11.3 | 17.7 | 0.00 | 0.00 | 0.00 | 89 | 1017.7 |
| 20260507041221 | 15 | 306 | 12.9 | 17.7 | 0.00 | 0.00 | 0.00 | 89 | 1017.7 |
| 20260507040152 | 16 | 238 | 12.9 | 20.9 | 0.00 | 0.00 | 0.00 | 88 | 1017.6 |
| 20260507034015 | 16 | 336 | 12.9 | 19.3 | 0.00 | 0.00 | 0.00 | 88 | 1017.3 |